カタログに戻る

TELSTAR 303

運用中通信GEO
NORAD 15826·PAYLOAD·🇺🇸 United States

打ち上げ Jun 17, 1985 から Cape Canaveral Space Force Station

Loading…

TLE

最新Source: Space-Track

元期: Sep 14, 2026, 06:27 UTC

1 15826U 85048D   26257.26875111 -.00000174  00000-0  00000-0 0  9993
2 15826  14.1554 345.6025 0004724 247.8017 130.1261  0.99870110 47397

AllMySatでTELSTAR 303をリアルタイム追跡

Download on the App Store